Tracking 19709 objects as of 20-Jun-2019
HD Live streaming from Space Station
objects crossing your sky now

CBERS 1 DEB

Track CBERS 1 DEB now!
10-day predictions


NORAD ID: 35387
Int'l Code: 1999-057SS
Perigee: 733.2 km
Apogee: 738.1 km
Inclination: 98.5 °
Period: 99.4 minutes
Semi major axis: 7106 km
RCS: 0.0091 m2 (small)
Launch date: October 14, 1999
Source: China/Brazil (CHBZ)
Launch site: Taiyaun Space Center, China (TSC)

Note: This is SATELLITE DEBRIS
aabbcc
Your satellite tracking list
Your tracking list is empty




NASA's NSSDC Master Catalog

Two Line Element Set (TLE):
1 35387U 99057SS  19166.14569785  .00000541  00000-0  15430-3 0  9990
2 35387  98.4825 130.1300 0003444 149.7841 210.3552 14.49116830597434
Source of the keplerian elements: AFSPC